When you browse on this site, cookies collect data to enhance your experience and personalize the content and advertising you see.
Visit our Privacy Policy to learn more. By continuing to use the site, you agree to this use of cookies and data.
  • In Germany
  • List of Countries
  • For 7 days
  • Water Temperature
  • Weather Map
  • Weather Widgets
  • user-avatar
    Login

    Hourly Weather Salta

    Today, 25 August, Sunday

    Time Temperature Precipitation Wind Pressure Humidity
    00:00 +13°C° 0 mm 1 mps 651 mmHg 54%
    01:00 +13°C° 0 mm 1 mps 651 mmHg 54%
    02:00 +13°C° 0 mm 1 mps 651 mmHg 57%
    03:00 +13°C° 0 mm 1 mps 650 mmHg 57%
    04:00 +12°C° 0 mm 1 mps 650 mmHg 57%
    05:00 +12°C° 0 mm 1 mps 650 mmHg 58%
    06:00 +13°C° 0 mm 1 mps 650 mmHg 52%
    07:00 +15°C° 0 mm 1 mps 651 mmHg 47%
    08:00 +18°C° 0 mm 1 mps 652 mmHg 42%
    09:00 +21°C° 0 mm 1 mps 653 mmHg 36%
    10:00 +24°C° 0 mm 1 mps 653 mmHg 31%
    11:00 +27°C° 0 mm 1 mps 654 mmHg 25%
    12:00 +28°C° 0 mm 2 mps 654 mmHg 24%
    13:00 +29°C° 0 mm 2 mps 653 mmHg 23%
    14:00 +29°C° 0 mm 2 mps 653 mmHg 22%
    15:00 +29°C° 0 mm 2 mps 653 mmHg 23%
    16:00 +28°C° 0 mm 2 mps 653 mmHg 25%
    17:00 +28°C° 0 mm 2 mps 653 mmHg 26%
    18:00 +25°C° 0 mm 2 mps 652 mmHg 34%
    19:00 +22°C° 0 mm 1 mps 652 mmHg 41%
    20:00 +19°C° 0 mm 1 mps 652 mmHg 49%
    21:00 +19°C° 0 mm 1 mps 652 mmHg 51%
    22:00 +18°C° 0 mm 1 mps 653 mmHg 52%
    23:00 +17°C° 0 mm 2 mps 653 mmHg 53%

    Tomorrow, 26 August, Monday

    Time Temperature Precipitation Wind Pressure Humidity
    00:00 +18°C° 0 mm 1 mps 653 mmHg 53%
    01:00 +16°C° 0 mm 1 mps 652 mmHg 53%
    02:00 +16°C° 0 mm 1 mps 652 mmHg 53%
    03:00 +16°C° 0 mm 1 mps 652 mmHg 52%
    04:00 +15°C° 0 mm 1 mps 652 mmHg 52%
    05:00 +15°C° 0 mm 1 mps 652 mmHg 52%
    06:00 +18°C° 0 mm 1 mps 653 mmHg 46%
    07:00 +19°C° 0 mm 1 mps 654 mmHg 40%
    08:00 +21°C° 0 mm 1 mps 654 mmHg 35%
    09:00 +24°C° 0 mm 1 mps 655 mmHg 31%
    10:00 +26°C° 0 mm 1 mps 656 mmHg 28%
    11:00 +29°C° 0 mm 2 mps 656 mmHg 24%
    12:00 +30°C° 0 mm 2 mps 656 mmHg 23%
    13:00 +31°C° 0 mm 3 mps 655 mmHg 21%
    14:00 +31°C° 0 mm 3 mps 654 mmHg 20%
    15:00 +31°C° 0 mm 3 mps 654 mmHg 21%
    16:00 +30°C° 0 mm 3 mps 654 mmHg 23%
    17:00 +29°C° 0 mm 3 mps 653 mmHg 25%
    18:00 +27°C° 0 mm 3 mps 653 mmHg 33%
    19:00 +24°C° 0 mm 2 mps 653 mmHg 41%
    20:00 +21°C° 0 mm 1 mps 652 mmHg 49%
    21:00 +20°C° 0 mm 1 mps 653 mmHg 52%
    22:00 +19°C° 0 mm 1 mps 653 mmHg 54%
    23:00 +19°C° 0 mm 1 mps 653 mmHg 57%

    Day after tomorrow, 27 August, Tuesday

    Time Temperature Precipitation Wind Pressure Humidity
    00:00 +19°C° 0 mm 1 mps 653 mmHg 57%
    01:00 +18°C° 0 mm 1 mps 653 mmHg 58%
    02:00 +18°C° 0 mm 1 mps 653 mmHg 58%
    03:00 +18°C° 0 mm 1 mps 653 mmHg 59%
    04:00 +16°C° 0 mm 1 mps 652 mmHg 59%
    05:00 +16°C° 0 mm 1 mps 652 mmHg 60%
    06:00 +19°C° 0 mm 1 mps 653 mmHg 54%
    07:00 +20°C° 0 mm 1 mps 654 mmHg 48%
    08:00 +20°C° 0 mm 0 mps 655 mmHg 42%
    09:00 +24°C° 0 mm 1 mps 656 mmHg 38%
    10:00 +27°C° 0 mm 1 mps 657 mmHg 34%
    11:00 +29°C° 0 mm 2 mps 658 mmHg 31%
    12:00 +30°C° 0 mm 2 mps 657 mmHg 29%
    13:00 +31°C° 0 mm 3 mps 657 mmHg 28%
    14:00 +31°C° 0 mm 3 mps 656 mmHg 27%
    15:00 +31°C° 0 mm 3 mps 656 mmHg 28%
    16:00 +30°C° 0 mm 4 mps 655 mmHg 30%
    17:00 +30°C° 0 mm 4 mps 655 mmHg 31%
    18:00 +27°C° 0 mm 3 mps 654 mmHg 38%
    19:00 +25°C° 0 mm 2 mps 654 mmHg 45%
    20:00 +22°C° 0 mm 1 mps 654 mmHg 52%
    21:00 +22°C° 0 mm 1 mps 654 mmHg 54%
    22:00 +21°C° 0 mm 1 mps 654 mmHg 57%
    23:00 +20°C° 0 mm 1 mps 654 mmHg 60%

    28 August, Wednesday

    Time Temperature Precipitation Wind Pressure Humidity
    00:00 +20°C° 0 mm 1 mps 653 mmHg 60%
    01:00 +19°C° 0 mm 1 mps 653 mmHg 61%
    02:00 +19°C° 0 mm 1 mps 653 mmHg 62%
    03:00 +19°C° 0 mm 1 mps 652 mmHg 63%
    04:00 +18°C° 0 mm 1 mps 652 mmHg 63%
    05:00 +18°C° 0 mm 1 mps 651 mmHg 64%
    06:00 +19°C° 0 mm 1 mps 652 mmHg 58%
    07:00 +19°C° 0 mm 0 mps 653 mmHg 52%
    08:00 +21°C° 0 mm 0 mps 654 mmHg 46%
    09:00 +25°C° 0 mm 1 mps 654 mmHg 42%
    10:00 +27°C° 0 mm 2 mps 654 mmHg 37%
    11:00 +30°C° 0 mm 2 mps 655 mmHg 32%
    12:00 +31°C° 0 mm 3 mps 654 mmHg 31%
    13:00 +33°C° 0 mm 3 mps 653 mmHg 29%
    14:00 +34°C° 0 mm 4 mps 653 mmHg 28%
    15:00 +33°C° 0 mm 4 mps 652 mmHg 29%
    16:00 +33°C° 0 mm 4 mps 652 mmHg 30%
    17:00 +32°C° 0 mm 4 mps 651 mmHg 31%
    18:00 +29°C° 0 mm 3 mps 651 mmHg 36%
    19:00 +27°C° 0 mm 2 mps 651 mmHg 41%
    20:00 +24°C° 0 mm 1 mps 651 mmHg 47%
    21:00 +24°C° 0 mm 1 mps 651 mmHg 47%
    22:00 +23°C° 0 mm 1 mps 651 mmHg 48%
    23:00 +22°C° 0 mm 1 mps 651 mmHg 48%

    29 August, Thursday

    Time Temperature Precipitation Wind Pressure Humidity
    00:00 +22°C° 0 mm 1 mps 650 mmHg 48%
    01:00 +21°C° 0 mm 1 mps 650 mmHg 48%
    02:00 +21°C° 0 mm 1 mps 650 mmHg 49%
    03:00 +20°C° 0 mm 1 mps 649 mmHg 48%
    04:00 +20°C° 0 mm 1 mps 649 mmHg 47%
    05:00 +19°C° 0 mm 1 mps 649 mmHg 46%
    06:00 +21°C° 0 mm 1 mps 650 mmHg 40%
    07:00 +23°C° 0 mm 1 mps 651 mmHg 35%
    08:00 +25°C° 0 mm 1 mps 651 mmHg 30%
    09:00 +27°C° 0 mm 1 mps 652 mmHg 26%
    10:00 +30°C° 0 mm 1 mps 652 mmHg 23%
    11:00 +34°C° 0 mm 2 mps 653 mmHg 20%
    12:00 +35°C° 0 mm 2 mps 652 mmHg 19%
    13:00 +36°C° 0 mm 3 mps 652 mmHg 18%
    14:00 +37°C° 0 mm 3 mps 652 mmHg 17%
    15:00 +36°C° 0 mm 3 mps 651 mmHg 18%
    16:00 +35°C° 0 mm 3 mps 651 mmHg 19%
    17:00 +35°C° 0 mm 3 mps 650 mmHg 19%
    18:00 +31°C° 0 mm 2 mps 650 mmHg 25%
    19:00 +28°C° 0 mm 2 mps 650 mmHg 30%
    20:00 +25°C° 0 mm 1 mps 650 mmHg 35%
    21:00 +24°C° 0.1 mm 1 mps 651 mmHg 38%
    22:00 +23°C° 0.1 mm 1 mps 651 mmHg 41%
    23:00 +23°C° 0.1 mm 2 mps 652 mmHg 44%

    30 August, Friday

    Time Temperature Precipitation Wind Pressure Humidity
    00:00 +21°C° 0.1 mm 1 mps 651 mmHg 48%
    01:00 +20°C° 0.1 mm 1 mps 651 mmHg 53%
    02:00 +19°C° 0.1 mm 1 mps 651 mmHg 58%
    03:00 +18°C° 0 mm 1 mps 650 mmHg 62%
    04:00 +16°C° 0 mm 1 mps 650 mmHg 67%
    05:00 +15°C° 0 mm 1 mps 649 mmHg 71%
    06:00 +16°C° 0 mm 1 mps 650 mmHg 66%
    07:00 +18°C° 0 mm 1 mps 651 mmHg 61%
    08:00 +19°C° 0 mm 1 mps 651 mmHg 56%
    09:00 +22°C° 0 mm 1 mps 651 mmHg 49%
    10:00 +24°C° 0 mm 2 mps 651 mmHg 42%
    11:00 +26°C° 0 mm 2 mps 652 mmHg 35%
    12:00 +27°C° 0 mm 2 mps 651 mmHg 34%
    13:00 +28°C° 0 mm 3 mps 650 mmHg 32%
    14:00 +29°C° 0 mm 3 mps 650 mmHg 30%
    15:00 +28°C° 0 mm 3 mps 650 mmHg 32%
    16:00 +27°C° 0 mm 4 mps 649 mmHg 34%
    17:00 +26°C° 0 mm 4 mps 649 mmHg 36%
    18:00 +22°C° 0 mm 3 mps 649 mmHg 43%
    19:00 +19°C° 0 mm 3 mps 649 mmHg 50%
    20:00 +16°C° 0 mm 2 mps 649 mmHg 57%
    21:00 +15°C° 0 mm 1 mps 649 mmHg 60%
    22:00 +14°C° 0 mm 1 mps 649 mmHg 64%
    23:00 +13°C° 0 mm 1 mps 649 mmHg 67%
    Show more